Wetterdaten: Donnerstag, 25.09.2014
Datum Zeit Temp. A. Feuchte A. Luftdruck Regen Wind Richtung Richtung Sonnenschein ET UV Solar Taupunkt Windchill Windben Empfang
25.09.2014 00:00 10,0 C 89 % 1010,6 hPa 0,0 l/m 0,0 km/h (0 Bft) S 178 0 min 0,000 mm 0,0 UV-I 0 W/m 8,3 C 10,0 C 0,0 km/h (0 Bft) 0,00 %
25.09.2014 00:15 10,0 C 89 % 1010,7 hPa 0,0 l/m 0,0 km/h (0 Bft) S-SW 193 0 min 0,000 mm 0,0 UV-I 0 W/m 8,3 C 10,0 C 0,0 km/h (0 Bft) 0,00 %
25.09.2014 00:30 10,1 C 88 % 1010,7 hPa 0,0 l/m 0,0 km/h (0 Bft) SO 145 0 min 0,000 mm 0,0 UV-I 0 W/m 8,2 C 10,1 C 0,0 km/h (0 Bft) 0,00 %
25.09.2014 00:45 10,1 C 88 % 1010,6 hPa 0,0 l/m 0,0 km/h (0 Bft) SW 231 0 min 0,000 mm 0,0 UV-I 0 W/m 8,2 C 10,1 C 0,0 km/h (0 Bft) 0,00 %
25.09.2014 01:00 10,1 C 88 % 1010,6 hPa 0,0 l/m 0,0 km/h (0 Bft) S-SW 210 0 min 0,000 mm 0,0 UV-I 0 W/m 8,2 C 10,1 C 0,0 km/h (0 Bft) 0,00 %
25.09.2014 01:15 10,2 C 88 % 1010,9 hPa 0,0 l/m 0,0 km/h (0 Bft) W-SW 238 0 min 0,000 mm 0,0 UV-I 0 W/m 8,3 C 10,2 C 0,0 km/h (0 Bft) 0,00 %
25.09.2014 01:30 10,3 C 88 % 1010,8 hPa 0,0 l/m 0,0 km/h (0 Bft) S 172 0 min 0,000 mm 0,0 UV-I 0 W/m 8,4 C 10,3 C 0,0 km/h (0 Bft) 0,00 %
25.09.2014 01:45 10,6 C 87 % 1011,2 hPa 0,0 l/m 0,0 km/h (0 Bft) NW 322 0 min 0,000 mm 0,0 UV-I 0 W/m 8,5 C 10,6 C 0,0 km/h (0 Bft) 0,00 %
25.09.2014 02:00 11,0 C 87 % 1011,5 hPa 0,6 l/m 0,0 km/h (0 Bft) O-SO 116 0 min 0,000 mm 0,0 UV-I 0 W/m 8,9 C 11,0 C 0,0 km/h (0 Bft) 0,00 %
25.09.2014 02:15 11,0 C 87 % 1011,9 hPa 0,3 l/m 1,8 km/h (1 Bft) W-SW 252 0 min 0,000 mm 0,0 UV-I 0 W/m 8,9 C 11,0 C 7,9 km/h (2 Bft) 0,00 %
25.09.2014 02:30 11,1 C 86 % 1012,2 hPa 0,0 l/m 0,4 km/h (0 Bft) O 82 0 min 0,000 mm 0,0 UV-I 0 W/m 8,8 C 11,1 C 4,0 km/h (1 Bft) 0,00 %
25.09.2014 02:45 11,0 C 86 % 1012,4 hPa 0,3 l/m 1,8 km/h (1 Bft) W-SW 256 0 min 0,000 mm 0,0 UV-I 0 W/m 8,7 C 11,0 C 4,0 km/h (1 Bft) 0,00 %
25.09.2014 03:00 10,9 C 86 % 1012,6 hPa 0,3 l/m 0,0 km/h (0 Bft) NW 311 0 min 0,000 mm 0,0 UV-I 0 W/m 8,7 C 10,9 C 0,0 km/h (0 Bft) 0,00 %
25.09.2014 03:15 10,9 C 87 % 1012,7 hPa 0,3 l/m 1,4 km/h (1 Bft) N-NW 332 0 min 0,000 mm 0,0 UV-I 0 W/m 8,8 C 10,9 C 4,0 km/h (1 Bft) 0,00 %
25.09.2014 03:30 10,8 C 87 % 1013,0 hPa 0,0 l/m 0,4 km/h (0 Bft) SW 217 0 min 0,000 mm 0,0 UV-I 0 W/m 8,7 C 10,8 C 4,0 km/h (1 Bft) 0,00 %
25.09.2014 03:45 10,7 C 87 % 1013,1 hPa 0,3 l/m 0,0 km/h (0 Bft) S 191 0 min 0,000 mm 0,0 UV-I 0 W/m 8,6 C 10,7 C 0,0 km/h (0 Bft) 0,00 %
25.09.2014 04:00 10,6 C 87 % 1013,3 hPa 0,3 l/m 0,0 km/h (0 Bft) O-SO 118 0 min 0,000 mm 0,0 UV-I 0 W/m 8,5 C 10,6 C 0,0 km/h (0 Bft) 0,00 %
25.09.2014 04:15 10,6 C 87 % 1013,5 hPa 0,6 l/m 0,0 km/h (0 Bft) S 176 0 min 0,000 mm 0,0 UV-I 0 W/m 8,5 C 10,6 C 0,0 km/h (0 Bft) 0,00 %
25.09.2014 04:30 10,6 C 88 % 1013,4 hPa 0,3 l/m 0,0 km/h (0 Bft) N-NW 348 0 min 0,000 mm 0,0 UV-I 0 W/m 8,7 C 10,6 C 0,0 km/h (0 Bft) 0,00 %
25.09.2014 04:45 10,5 C 88 % 1013,9 hPa 0,3 l/m 0,0 km/h (0 Bft) W-SW 255 0 min 0,000 mm 0,0 UV-I 0 W/m 8,6 C 10,5 C 0,0 km/h (0 Bft) 0,00 %
25.09.2014 05:00 10,5 C 88 % 1014,1 hPa 0,3 l/m 0,4 km/h (0 Bft) W-SW 256 0 min 0,000 mm 0,0 UV-I 0 W/m 8,6 C 10,5 C 4,0 km/h (1 Bft) 0,00 %
25.09.2014 05:15 10,4 C 89 % 1014,2 hPa 0,3 l/m 0,0 km/h (0 Bft) SO 127 0 min 0,000 mm 0,0 UV-I 0 W/m 8,7 C 10,4 C 0,0 km/h (0 Bft) 0,00 %
25.09.2014 05:30 10,3 C 88 % 1014,3 hPa 0,0 l/m 0,4 km/h (0 Bft) W-SW 252 0 min 0,000 mm 0,0 UV-I 0 W/m 8,4 C 10,3 C 4,0 km/h (1 Bft) 0,00 %
25.09.2014 05:45 10,2 C 88 % 1014,5 hPa 0,0 l/m 0,0 km/h (0 Bft) SO 145 0 min 0,000 mm 0,0 UV-I 0 W/m 8,3 C 10,2 C 0,0 km/h (0 Bft) 0,00 %
25.09.2014 06:00 10,2 C 88 % 1014,7 hPa 0,0 l/m 0,0 km/h (0 Bft) SW 220 0 min 0,000 mm 0,0 UV-I 0 W/m 8,3 C 10,2 C 0,0 km/h (0 Bft) 0,00 %
25.09.2014 06:15 10,2 C 88 % 1014,8 hPa 0,0 l/m 0,0 km/h (0 Bft) S-SW 202 0 min 0,000 mm 0,0 UV-I 0 W/m 8,3 C 10,2 C 0,0 km/h (0 Bft) 0,00 %
25.09.2014 06:30 10,2 C 88 % 1014,8 hPa 0,0 l/m 1,8 km/h (1 Bft) W-SW 256 0 min 0,000 mm 0,0 UV-I 0 W/m 8,3 C 10,2 C 4,0 km/h (1 Bft) 0,00 %
25.09.2014 06:45 10,3 C 87 % 1015,1 hPa 0,0 l/m 0,0 km/h (0 Bft) O 92 0 min 0,000 mm 0,0 UV-I 0 W/m 8,2 C 10,3 C 0,0 km/h (0 Bft) 0,00 %
25.09.2014 07:00 10,2 C 86 % 1015,5 hPa 0,0 l/m 0,4 km/h (0 Bft) NO 35 0 min 0,000 mm 0,0 UV-I 0 W/m 8,0 C 10,2 C 4,0 km/h (1 Bft) 0,00 %
25.09.2014 07:15 10,2 C 86 % 1015,5 hPa 0,0 l/m 0,0 km/h (0 Bft) W-SW 252 0 min 0,000 mm 0,0 UV-I 0 W/m 8,0 C 10,2 C 0,0 km/h (0 Bft) 0,00 %
25.09.2014 07:30 10,1 C 86 % 1015,5 hPa 0,0 l/m 4,3 km/h (1 Bft) W-SW 256 0 min 0,000 mm 0,0 UV-I 0 W/m 7,9 C 10,1 C 7,9 km/h (2 Bft) 0,00 %
25.09.2014 07:45 10,1 C 86 % 1015,7 hPa 0,0 l/m 0,0 km/h (0 Bft) SO 146 0 min 0,000 mm 1,0 UV-I 18 W/m 7,9 C 10,1 C 0,0 km/h (0 Bft) 0,00 %
25.09.2014 08:00 10,2 C 85 % 1015,9 hPa 0,0 l/m 0,0 km/h (0 Bft) N-NO 26 0 min 0,000 mm 0,0 UV-I 17 W/m 7,8 C 10,2 C 0,0 km/h (0 Bft) 0,00 %
25.09.2014 08:15 10,3 C 84 % 1015,6 hPa 0,0 l/m 0,0 km/h (0 Bft) S-SW 199 0 min 0,000 mm 0,0 UV-I 25 W/m 7,7 C 10,3 C 0,0 km/h (0 Bft) 0,00 %
25.09.2014 08:30 10,3 C 83 % 1015,9 hPa 0,0 l/m 0,0 km/h (0 Bft) O-SO 113 0 min 0,000 mm 1,0 UV-I 41 W/m 7,5 C 10,3 C 0,0 km/h (0 Bft) 0,00 %
25.09.2014 08:45 10,3 C 83 % 1016,1 hPa 0,0 l/m 0,0 km/h (0 Bft) SW 227 0 min 0,000 mm 1,0 UV-I 56 W/m 7,5 C 10,3 C 0,0 km/h (0 Bft) 0,00 %
25.09.2014 09:00 10,3 C 82 % 1016,0 hPa 0,0 l/m 0,0 km/h (0 Bft) S 175 0 min 0,000 mm 1,0 UV-I 42 W/m 7,4 C 10,3 C 0,0 km/h (0 Bft) 0,00 %
25.09.2014 09:15 10,3 C 81 % 1016,2 hPa 0,0 l/m 0,0 km/h (0 Bft) S-SW 205 0 min 0,000 mm 1,0 UV-I 49 W/m 7,2 C 10,3 C 0,0 km/h (0 Bft) 0,00 %
25.09.2014 09:30 10,4 C 81 % 1016,3 hPa 0,0 l/m 0,0 km/h (0 Bft) S 190 0 min 0,000 mm 1,0 UV-I 48 W/m 7,3 C 10,4 C 0,0 km/h (0 Bft) 0,00 %
25.09.2014 09:45 10,6 C 80 % 1016,2 hPa 0,0 l/m 0,0 km/h (0 Bft) S 181 0 min 0,000 mm 2,0 UV-I 88 W/m 7,3 C 10,6 C 0,0 km/h (0 Bft) 0,00 %
25.09.2014 10:00 10,5 C 82 % 1016,2 hPa 0,0 l/m 0,0 km/h (0 Bft) SO 131 0 min 0,000 mm 1,0 UV-I 80 W/m 7,6 C 10,5 C 0,0 km/h (0 Bft) 0,00 %
25.09.2014 10:15 10,8 C 82 % 1016,4 hPa 0,0 l/m 5,8 km/h (2 Bft) SW 227 0 min 0,000 mm 1,0 UV-I 83 W/m 7,9 C 10,8 C 11,9 km/h (2 Bft) 0,00 %
25.09.2014 10:30 10,9 C 82 % 1016,5 hPa 0,0 l/m 0,4 km/h (0 Bft) NW 325 0 min 0,000 mm 1,0 UV-I 117 W/m 7,9 C 10,9 C 4,0 km/h (1 Bft) 0,00 %
25.09.2014 10:45 11,1 C 81 % 1016,6 hPa 0,3 l/m 1,4 km/h (1 Bft) W-NW 291 0 min 0,000 mm 1,0 UV-I 129 W/m 8,0 C 11,1 C 4,0 km/h (1 Bft) 0,00 %
25.09.2014 11:00 10,5 C 84 % 1016,9 hPa 0,0 l/m 0,4 km/h (0 Bft) O-NO 64 0 min 0,000 mm 4,0 UV-I 42 W/m 7,9 C 10,5 C 4,0 km/h (1 Bft) 0,00 %
25.09.2014 11:15 10,6 C 83 % 1017,0 hPa 0,0 l/m 1,4 km/h (1 Bft) SW 214 0 min 0,000 mm 3,0 UV-I 62 W/m 7,8 C 10,6 C 4,0 km/h (1 Bft) 0,00 %
25.09.2014 11:30 10,9 C 82 % 1016,9 hPa 0,0 l/m 0,0 km/h (0 Bft) SW 227 0 min 0,000 mm 2,0 UV-I 98 W/m 7,9 C 10,9 C 0,0 km/h (0 Bft) 0,00 %
25.09.2014 11:45 11,3 C 80 % 1016,9 hPa 0,0 l/m 1,8 km/h (1 Bft) N-NO 28 0 min 0,000 mm 1,0 UV-I 143 W/m 8,0 C 11,3 C 4,0 km/h (1 Bft) 0,00 %
25.09.2014 12:00 12,8 C 78 % 1016,5 hPa 0,0 l/m 0,7 km/h (0 Bft) SO 146 0 min 0,000 mm 2,0 UV-I 296 W/m 9,1 C 12,8 C 4,0 km/h (1 Bft) 0,00 %
25.09.2014 12:15 12,6 C 77 % 1017,0 hPa 0,3 l/m 11,5 km/h (2 Bft) SW 229 0 min 0,000 mm 2,0 UV-I 207 W/m 8,7 C 9,7 C 11,9 km/h (2 Bft) 0,00 %
25.09.2014 12:30 11,6 C 81 % 1017,4 hPa 0,0 l/m 0,7 km/h (0 Bft) O-NO 72 0 min 0,000 mm 4,0 UV-I 102 W/m 8,5 C 11,6 C 4,0 km/h (1 Bft) 0,00 %
25.09.2014 12:45 11,5 C 80 % 1017,5 hPa 0,0 l/m 0,0 km/h (0 Bft) NO 46 0 min 0,000 mm 3,0 UV-I 193 W/m 8,2 C 11,5 C 0,0 km/h (0 Bft) 0,00 %
25.09.2014 13:00 12,0 C 79 % 1017,4 hPa 0,0 l/m 2,2 km/h (1 Bft) O 91 0 min 0,000 mm 3,0 UV-I 219 W/m 8,5 C 12,0 C 4,0 km/h (1 Bft) 0,00 %
25.09.2014 13:15 12,9 C 76 % 1016,9 hPa 0,0 l/m 0,0 km/h (0 Bft) S-SW 211 15 min 0,000 mm 2,0 UV-I 532 W/m 8,8 C 12,9 C 0,0 km/h (0 Bft) 0,00 %
25.09.2014 13:30 13,7 C 72 % 1016,3 hPa 0,0 l/m 0,4 km/h (0 Bft) O-NO 70 15 min 0,000 mm 1,0 UV-I 461 W/m 8,7 C 13,7 C 4,0 km/h (1 Bft) 0,00 %
25.09.2014 13:45 13,5 C 72 % 1016,5 hPa 0,0 l/m 2,2 km/h (1 Bft) N 356 0 min 0,000 mm 1,0 UV-I 293 W/m 8,6 C 13,5 C 7,9 km/h (2 Bft) 0,00 %
25.09.2014 14:00 13,2 C 74 % 1016,8 hPa 0,0 l/m 0,7 km/h (0 Bft) O 86 0 min 0,000 mm 2,0 UV-I 171 W/m 8,7 C 13,2 C 4,0 km/h (1 Bft) 0,00 %
25.09.2014 14:15 13,1 C 75 % 1017,0 hPa 0,0 l/m 7,9 km/h (2 Bft) SW 222 0 min 0,000 mm 3,0 UV-I 189 W/m 8,8 C 12,2 C 11,9 km/h (2 Bft) 0,00 %
25.09.2014 14:30 12,6 C 75 % 1017,3 hPa 0,0 l/m 0,4 km/h (0 Bft) W-SW 254 0 min 0,000 mm 2,0 UV-I 117 W/m 8,3 C 12,6 C 4,0 km/h (1 Bft) 0,00 %
25.09.2014 14:45 13,2 C 71 % 1016,9 hPa 0,0 l/m 7,9 km/h (2 Bft) W-SW 256 0 min 0,000 mm 2,0 UV-I 218 W/m 8,1 C 12,3 C 11,9 km/h (2 Bft) 0,00 %
25.09.2014 15:00 13,8 C 72 % 1016,7 hPa 0,0 l/m 0,0 km/h (0 Bft) N-NW 342 0 min 0,000 mm 2,0 UV-I 258 W/m 8,8 C 13,8 C 0,0 km/h (0 Bft) 0,00 %
25.09.2014 15:15 13,5 C 73 % 1016,8 hPa 0,0 l/m 0,0 km/h (0 Bft) SW 223 0 min 0,000 mm 2,0 UV-I 221 W/m 8,8 C 13,5 C 0,0 km/h (0 Bft) 0,00 %
25.09.2014 15:30 13,2 C 74 % 1016,8 hPa 0,0 l/m 0,4 km/h (0 Bft) N-NO 16 0 min 0,000 mm 2,0 UV-I 206 W/m 8,7 C 13,2 C 4,0 km/h (1 Bft) 0,00 %
25.09.2014 15:45 13,3 C 71 % 1016,9 hPa 0,0 l/m 0,0 km/h (0 Bft) S-SO 150 0 min 0,000 mm 1,0 UV-I 227 W/m 8,2 C 13,3 C 0,0 km/h (0 Bft) 0,00 %
25.09.2014 16:00 13,1 C 72 % 1016,9 hPa 0,0 l/m 0,4 km/h (0 Bft) O 86 0 min 0,000 mm 0,0 UV-I 179 W/m 8,2 C 13,1 C 4,0 km/h (1 Bft) 0,00 %
25.09.2014 16:15 13,1 C 73 % 1017,0 hPa 0,0 l/m 4,0 km/h (1 Bft) NW 318 15 min 0,000 mm 0,0 UV-I 233 W/m 8,4 C 13,1 C 7,9 km/h (2 Bft) 0,00 %
25.09.2014 16:30 12,6 C 74 % 1017,3 hPa 0,0 l/m 6,5 km/h (2 Bft) O-NO 69 0 min 0,000 mm 1,0 UV-I 203 W/m 8,1 C 12,6 C 15,8 km/h (3 Bft) 0,00 %
25.09.2014 16:45 12,0 C 75 % 1017,8 hPa 0,0 l/m 0,7 km/h (0 Bft) N-NW 348 0 min 0,000 mm 1,0 UV-I 42 W/m 7,7 C 12,0 C 4,0 km/h (1 Bft) 0,00 %
25.09.2014 17:00 11,4 C 81 % 1018,3 hPa 1,8 l/m 0,0 km/h (0 Bft) W-NW 298 0 min 0,000 mm 1,0 UV-I 24 W/m 8,3 C 11,4 C 0,0 km/h (0 Bft) 0,00 %
25.09.2014 17:15 11,0 C 82 % 1018,3 hPa 0,6 l/m 0,0 km/h (0 Bft) O 88 0 min 0,000 mm 0,0 UV-I 54 W/m 8,0 C 11,0 C 0,0 km/h (0 Bft) 0,00 %
25.09.2014 17:30 11,2 C 81 % 1017,8 hPa 0,0 l/m 5,8 km/h (2 Bft) S 191 0 min 0,000 mm 0,0 UV-I 89 W/m 8,1 C 11,2 C 11,9 km/h (2 Bft) 0,00 %
25.09.2014 17:45 11,5 C 80 % 1018,5 hPa 0,0 l/m 0,7 km/h (0 Bft) W-SW 252 0 min 0,000 mm 0,0 UV-I 74 W/m 8,2 C 11,5 C 4,0 km/h (1 Bft) 0,00 %
25.09.2014 18:00 11,2 C 82 % 1018,9 hPa 0,0 l/m 0,0 km/h (0 Bft) S 178 0 min 0,000 mm 0,0 UV-I 39 W/m 8,2 C 11,2 C 0,0 km/h (0 Bft) 0,00 %
25.09.2014 18:15 11,3 C 82 % 1019,1 hPa 0,0 l/m 1,8 km/h (1 Bft) W 266 0 min 0,000 mm 0,0 UV-I 23 W/m 8,3 C 11,3 C 4,0 km/h (1 Bft) 0,00 %
25.09.2014 18:30 11,2 C 82 % 1019,2 hPa 0,0 l/m 0,0 km/h (0 Bft) W-NW 303 0 min 0,000 mm 0,0 UV-I 0 W/m 8,2 C 11,2 C 0,0 km/h (0 Bft) 0,00 %
25.09.2014 18:45 11,1 C 82 % 1019,3 hPa 0,0 l/m 0,0 km/h (0 Bft) NO 56 0 min 0,000 mm 0,0 UV-I 0 W/m 8,1 C 11,1 C 0,0 km/h (0 Bft) 0,00 %
25.09.2014 19:00 10,9 C 83 % 1019,2 hPa 0,0 l/m 0,4 km/h (0 Bft) W-NW 302 0 min 0,000 mm 0,0 UV-I 0 W/m 8,1 C 10,9 C 4,0 km/h (1 Bft) 0,00 %
25.09.2014 19:15 11,0 C 82 % 1019,3 hPa 0,0 l/m 0,7 km/h (0 Bft) NW 312 0 min 0,000 mm 0,0 UV-I 0 W/m 8,0 C 11,0 C 4,0 km/h (1 Bft) 0,00 %
25.09.2014 19:30 11,0 C 82 % 1019,7 hPa 0,0 l/m 0,7 km/h (0 Bft) NO 55 0 min 0,000 mm 0,0 UV-I 0 W/m 8,0 C 11,0 C 4,0 km/h (1 Bft) 0,00 %
25.09.2014 19:45 11,1 C 82 % 1019,9 hPa 0,0 l/m 0,7 km/h (0 Bft) N-NW 342 0 min 0,000 mm 0,0 UV-I 0 W/m 8,1 C 11,1 C 4,0 km/h (1 Bft) 0,00 %
25.09.2014 20:00 11,2 C 82 % 1020,0 hPa 0,0 l/m 0,0 km/h (0 Bft) SW 232 0 min 0,000 mm 0,0 UV-I 0 W/m 8,2 C 11,2 C 0,0 km/h (0 Bft) 0,00 %
25.09.2014 20:15 11,2 C 81 % 1019,9 hPa 0,0 l/m 0,4 km/h (0 Bft) NW 307 0 min 0,000 mm 0,0 UV-I 0 W/m 8,1 C 11,2 C 4,0 km/h (1 Bft) 0,00 %
25.09.2014 20:30 11,1 C 81 % 1020,0 hPa 0,0 l/m 0,0 km/h (0 Bft) W 272 0 min 0,000 mm 0,0 UV-I 0 W/m 8,0 C 11,1 C 0,0 km/h (0 Bft) 0,00 %
25.09.2014 20:45 11,1 C 82 % 1020,6 hPa 0,0 l/m 0,0 km/h (0 Bft) NO 52 0 min 0,000 mm 0,0 UV-I 0 W/m 8,1 C 11,1 C 0,0 km/h (0 Bft) 0,00 %
25.09.2014 21:00 11,0 C 82 % 1020,9 hPa 0,0 l/m 0,7 km/h (0 Bft) SW 229 0 min 0,000 mm 0,0 UV-I 0 W/m 8,0 C 11,0 C 4,0 km/h (1 Bft) 0,00 %
25.09.2014 21:15 11,0 C 82 % 1021,0 hPa 0,0 l/m 1,4 km/h (1 Bft) W-NW 287 0 min 0,000 mm 0,0 UV-I 0 W/m 8,0 C 11,0 C 4,0 km/h (1 Bft) 0,00 %
25.09.2014 21:30 11,1 C 81 % 1021,0 hPa 0,0 l/m 0,0 km/h (0 Bft) N 355 0 min 0,000 mm 0,0 UV-I 0 W/m 8,0 C 11,1 C 0,0 km/h (0 Bft) 0,00 %
25.09.2014 21:45 11,1 C 81 % 1021,4 hPa 0,0 l/m 0,4 km/h (0 Bft) W-SW 252 0 min 0,000 mm 0,0 UV-I 0 W/m 8,0 C 11,1 C 4,0 km/h (1 Bft) 0,00 %
25.09.2014 22:00 11,0 C 81 % 1021,4 hPa 0,0 l/m 0,4 km/h (0 Bft) O 97 0 min 0,000 mm 0,0 UV-I 0 W/m 7,9 C 11,0 C 4,0 km/h (1 Bft) 0,00 %
25.09.2014 22:15 11,0 C 80 % 1021,2 hPa 0,0 l/m 4,7 km/h (1 Bft) W-NW 297 0 min 0,000 mm 0,0 UV-I 0 W/m 7,7 C 11,0 C 7,9 km/h (2 Bft) 0,00 %
25.09.2014 22:30 11,0 C 80 % 1021,2 hPa 0,0 l/m 0,7 km/h (0 Bft) N 351 0 min 0,000 mm 0,0 UV-I 0 W/m 7,7 C 11,0 C 4,0 km/h (1 Bft) 0,00 %
25.09.2014 22:45 11,0 C 80 % 1021,3 hPa 0,0 l/m 0,4 km/h (0 Bft) N-NO 21 0 min 0,000 mm 0,0 UV-I 0 W/m 7,7 C 11,0 C 4,0 km/h (1 Bft) 0,00 %
25.09.2014 23:00 10,8 C 81 % 1021,4 hPa 0,0 l/m 0,4 km/h (0 Bft) W-NW 300 0 min 0,000 mm 0,0 UV-I 0 W/m 7,7 C 10,8 C 4,0 km/h (1 Bft) 0,00 %
25.09.2014 23:15 10,7 C 81 % 1021,6 hPa 0,0 l/m 0,4 km/h (0 Bft) W-NW 300 0 min 0,000 mm 0,0 UV-I 0 W/m 7,6 C 10,7 C 4,0 km/h (1 Bft) 0,00 %
25.09.2014 23:30 10,7 C 81 % 1021,5 hPa 0,0 l/m 0,0 km/h (0 Bft) O-SO 108 0 min 0,000 mm 0,0 UV-I 0 W/m 7,6 C 10,7 C 0,0 km/h (0 Bft) 0,00 %
25.09.2014 23:45 10,7 C 81 % 1021,8 hPa 0,0 l/m 0,0 km/h (0 Bft) N-NW 335 0 min 0,000 mm 0,0 UV-I 0 W/m 7,6 C 10,7 C 0,0 km/h (0 Bft) 0,00 %
_ Min-Zeit 00:00 14:45 00:00 - 00:00 - - - - - - 09:15 12:15 00:00 00:00
Minimum _ 10,0 C 71 % 1010,6 hPa - 0,0 km/h (0 Bft) - - - - - - 7,2 C 9,7 C 0,0 km/h (0 Bft) 0,00 %
_ Max-Zeit 15:00 00:00 23:45 17:00 12:15 - - 13:15 00:00 11:00 13:15 12:00 15:00 16:30 00:00
Maximum _ 13,8 C 89 % 1021,8 hPa 1,8 l/m 11,5 km/h
SW (2 Bft)
- - 15 min 0,000 mm 4,0 UV-I 532 W/m 9,1 C 13,8 C 15,8 km/h
O-NO (3 Bft)
0,00 %
Durchschnitt _ 11,2 C 82 % 1016,6 hPa #7,2 l/m 1,0 km/h (0 Bft) W-SW - #45 min. #0,000 mm 1,7 UV-I 140 W/m 8,2 C 11,1 C 2,8 km/h (1 Bft) 0,00 %